シュワルツ彗星

P/2013 T2 ( Schwartz )

English version
Home page
Updated on February 23, 2014

---------------------------------------------------------------------

・ プロフィール

発見日 2013年10月15日
発見光度 18.8等
発見者 Michael Schwartz (Nogales, AZ, U.S.A.)

・ 写真集

・ 軌道要素

Epoch 2013 July 7.0 TT = JDT 2456480.5
T 2013 June 20.66181 TT                                 MPC
q   1.5995911            (2000.0)            P               Q
n   0.15775220     Peri.  342.50877     +0.96637937     +0.25701201
a   3.3922338      Node     2.63292     -0.21217797     +0.81352795
e   0.5284549      Incl.    9.35287     -0.14522883     +0.52164844
P   6.25
From 113 observations 2013 Sept. 14-Dec. 11, mean residual 0".5.

・ 光度変化

        m1 = 13.5 + 5 logΔ + 15.0 log r

---------------------------------------------------------------------

軌道要素はM.P.E.C. 2013-Y32に掲載されたものです。
光度グラフはComet for Windowsで作成したものです。

---------------------------------------------------------------------

Copyright(C) Seiichi Yoshida (comet@aerith.net). All rights reserved.